Date,TemperatureHighF,TemperatureAvgF,TemperatureLowF,DewpointHighF,DewpointAvgF,DewpointLowF,HumidityHigh,HumidityAvg,HumidityLow,PressureMaxIn,PressureMinIn,WindSpeedMaxMPH,WindSpeedAvgMPH,GustSpeedMaxMPH,PrecipitationSumIn
2013-2-1,31.1,23.5,14.0,7.3,0.2,-6.4,40,36,29,29.96,29.34,17,4,17,0.39
2013-2-2,26.8,18.6,8.6,5.5,-2.0,-11.3,50,40,29,30.11,29.96,13,2,13,0.39
2013-2-3,28.6,23.5,18.1,10.4,6.8,4.8,66,49,38,29.99,29.63,12,3,12,0.39
2013-2-4,29.1,21.5,14.2,6.1,3.1,-11.4,61,45,28,29.78,29.57,20,4,20,0.00
2013-2-5,25.3,16.0,6.3,-4.4,-9.8,-17.3,40,30,26,29.96,29.78,13,2,13,0.00
2013-2-6,36.1,22.2,11.5,15.7,2.4,-11.9,50,42,27,30.19,29.84,11,2,15,0.00
2013-2-7,20.3,12.7,5.9,-8.4,-13.3,-19.3,32,29,25,30.52,30.19,15,3,15,0.00
2013-2-8,13.3,9.2,7.2,-14.4,-18.0,-19.8,27,27,27,30.49,29.87,20,4,20,0.00
2013-2-9,18.1,12.9,9.1,8.3,-6.8,-18.0,76,43,27,30.02,29.63,29,8,29,0.00
2013-2-10,36.0,19.5,5.0,9.0,-0.0,-9.6,57,43,27,30.28,30.02,13,2,13,0.00
2013-2-11,36.3,21.0,3.7,34.2,13.2,-8.1,95,72,53,30.25,29.49,6,0,6,0.04
2013-2-12,42.8,34.3,27.5,37.1,27.8,21.0,99,79,52,29.69,29.46,15,1,15,0.12
2013-2-13,46.0,36.7,30.6,23.1,18.5,14.8,65,48,33,29.75,29.66,13,2,13,0.00
2013-2-14,42.1,32.0,21.2,19.2,14.9,11.2,68,50,33,29.93,29.63,13,1,13,0.00
2013-2-15,45.0,32.2,20.3,30.4,21.4,12.6,86,66,43,29.93,29.81,16,2,16,0.00
2013-2-16,36.1,32.0,26.6,31.5,24.6,5.5,93,75,39,29.90,29.69,9,1,9,0.00
2013-2-17,26.6,21.3,17.1,13.4,5.3,-2.7,71,50,38,29.69,29.13,22,2,22,0.04
2013-2-18,30.0,19.9,10.9,4.7,-3.0,-8.4,41,36,30,29.93,29.37,27,7,27,0.00
2013-2-19,42.8,30.5,14.7,41.8,10.4,-7.2,97,46,23,30.02,29.52,13,3,13,0.98
2013-2-20,43.3,35.3,27.0,42.8,22.5,8.8,98,63,39,29.54,29.34,20,4,20,0.16
2013-2-21,32.5,26.7,19.8,17.5,9.1,0.9,58,47,37,30.08,29.54,17,4,17,0.00
2013-2-22,40.8,31.3,23.5,16.4,13.7,11.7,67,49,35,30.31,30.08,14,3,14,0.00
2013-2-23,36.9,29.9,22.5,29.7,22.6,13.4,91,75,57,30.28,29.96,11,1,11,0.00
2013-2-24,31.1,29.7,27.3,28.6,27.1,23.7,92,90,86,29.96,29.75,8,0,8,0.00
2013-2-25,41.5,31.2,22.3,25.5,21.7,17.1,87,69,44,30.19,29.84,10,1,10,0.28
2013-2-26,45.9,34.6,26.4,35.8,23.6,19.0,95,67,37,30.31,30.19,9,1,9,0.00
2013-2-27,38.7,30.1,25.3,30.7,23.5,19.5,93,77,47,30.19,29.66,20,3,20,0.00
2013-2-28,42.4,36.7,31.5,42.4,36.2,27.5,100,98,86,29.66,29.49,14,3,14,0.71